Location: Oshawa
(43.9000°N, 78.8670°W)
Time: 00:44:57
(UTC-04:00)

Daily predictions for brighter satellites

Satellite Brightness Start Highest point End
(mag) Time Altitude Azimuth Time Altitude Azimuth Time Altitude Azimuth
Cosmos 2151 Rocket 3.8 00:05:13 57° ENE 00:05:13 57° ENE 00:09:09 10° NNE
Cosmos 1441 Rocket 3.8 00:03:02 10° NNW 00:06:17 53° WNW 00:06:17 53° WNW
Cosmos 1536 Rocket 3.8 00:04:14 10° N 00:08:17 58° ENE 00:08:17 58° ENE
H-2A R/B 3.1 00:10:51 33° W 00:10:51 33° W 00:14:35 10° NNW
CZ-2C R/B 3.1 00:10:39 58° E 00:11:05 60° ENE 00:15:56 10° N
APEX 3.8 00:06:50 10° NNW 00:10:30 54° NW 00:10:30 54° NW
ISS -1.1 00:11:25 10° NW 00:13:56 20° N 00:15:43 14° NE
BREEZE-M (TANK) 4.3 00:01:56 10° WNW 00:14:04 53° N 00:16:37 20° ENE
Cosmos 2056 Rocket 4.0 00:16:03 42° E 00:16:03 42° E 00:20:19 10° NNE
S3M 4.0 00:11:06 10° NNW 00:17:12 71° W 00:18:37 53° SSW
Terra 3.5 00:16:28 21° WSW 00:17:29 22° W 00:21:12 10° NW
Mayak 0.7 00:17:38 10° NE 00:19:43 20° ENE 00:19:43 20° ENE
GP-B 4.1 00:23:01 10° NNE 00:26:34 38° ENE 00:26:34 38° ENE
BREEZE-M DEB (TANK) 4.0 00:24:46 27° WSW 00:27:44 87° SSE 00:46:53 10° ENE
Cosmos 2082 3.6 00:22:15 10° NNW 00:28:00 82° WSW 00:28:37 71° S
Cosmos 2278 3.6 00:31:23 71° SSW 00:32:03 88° ESE 00:37:47 10° NNE
Cosmos 1633 4.4 00:41:28 26° WNW 00:41:28 26° WNW 00:43:59 10° NNW
CZ-2C R/B 2.4 00:40:14 10° NNE 00:45:27 85° WNW 00:45:42 80° SW
Cosmos 2227 Rocket 2.7 00:46:22 10° NW 00:51:43 44° WSW 00:51:48 44° WSW
Cosmos 1656 3.5 00:53:00 75° WSW 00:53:25 82° WNW 00:58:59 10° NNE
Okean 1 Rocket 3.5 00:57:42 58° NNE 00:57:42 58° NNE 01:01:14 10° N
Cosmos 1371 Rocket 4.4 01:02:02 51° W 01:02:41 54° WNW 01:07:48 10° NNE
Cosmos 2263 Rocket 4.3 01:00:37 10° N 01:04:50 21° NE 01:08:52 11° E
Cosmos 839 Rocket 4.4 01:05:42 45° ESE 01:05:42 45° ESE 01:11:23 10° NE
Cosmos 2266 Rocket 4.4 01:04:49 45° WSW 01:06:10 53° WNW 01:12:10 10° N
Cosmos 1190 Rocket 4.1 01:01:39 10° NNW 01:06:32 62° W 01:06:32 62° W
Okean 1-7 Rocket 4.0 01:04:49 10° N 01:08:28 60° N 01:08:28 60° N
Cosmos 1238 Rocket 4.0 01:04:42 10° N 01:10:01 58° E 01:10:41 54° ESE
USA 229 DEB 3.7 01:14:37 51° SW 01:16:33 81° NW 01:23:34 10° NE
USA 229 3.7 01:14:45 51° SW 01:16:39 81° NW 01:23:40 10° NE
Cosmos 1980 Rocket 2.2 01:17:22 65° ESE 01:17:22 65° ESE 01:22:50 10° NNE
Cosmos 1025 Rocket 3.6 01:13:14 10° NNW 01:16:41 55° NNW 01:16:41 55° NNW
Cosmos 676 Rocket 3.9 01:12:39 10° NNW 01:17:46 82° WNW 01:17:46 82° WNW
Cosmos 1536 4.2 01:19:08 35° NW 01:19:08 35° NW 01:22:15 10° N
Meteor 1-23 Rocket 4.3 01:12:57 10° NNW 01:18:32 61° W 01:18:44 61° WSW
ATLAS CENTAUR R/B 4.3 01:18:18 10° NW 01:19:18 11° NW 01:20:20 10° NNW
Cosmos 2315 Rocket 4.1 01:13:50 10° NNW 01:19:55 59° W 01:20:38 55° WSW
Okean 2 4.2 01:17:24 10° N 01:20:29 49° NNW 01:20:29 49° NNW
Meteor 2-4 Rocket 4.3 01:17:16 10° NNW 01:22:14 40° W 01:22:16 40° W
NOSS 3-1 (A) 4.0 01:22:58 40° ESE 01:22:58 40° ESE 01:28:28 10° NE
Cosmos 1140 Rocket 3.4 01:19:56 10° NNW 01:25:07 79° ENE 01:25:07 79° ENE
Cosmos 1023 Rocket 4.4 01:20:09 10° NNW 01:25:18 80° ENE 01:25:18 80° ENE
Meteor 1-5 Rocket 4.3 01:25:26 59° WSW 01:25:55 62° WNW 01:31:24 10° N
Cosmos 407 Rocket 4.1 01:22:15 10° NNW 01:26:56 45° W 01:26:56 45° W
ALOS 2 4.1 01:31:07 27° WNW 01:31:07 27° WNW 01:34:01 10° NW
Cosmos 1741 Rocket 4.4 01:29:52 10° NNW 01:35:00 53° ENE 01:35:35 50° E
Cosmos 921 Rocket 4.1 01:40:15 37° NW 01:40:15 37° NW 01:43:49 10° N
Cosmos 1697 Rocket 3.3 01:42:57 42° W 01:44:04 48° WNW 01:49:32 10° NNE
Cosmos 2297 Rocket 3.9 01:41:40 10° NW 01:45:04 20° W 01:45:04 20° W
Landsat 5 4.3 01:47:41 43° N 01:47:41 43° N 01:50:23 10° NNW
CZ-4B R/B 3.2 01:48:48 32° NNW 01:48:48 32° NNW 01:50:46 10° NNW
ISS -0.8 01:48:02 10° NW 01:48:19 12° NW 01:48:19 12° NW
PSLV R/B 4.4 01:49:57 10° NNE 01:54:19 46° E 01:54:19 46° E
CZ-4C R/B 2.9 01:47:31 10° NW 01:54:38 66° WSW 01:56:10 55° S
Cosmos 1892 Rocket 4.1 01:51:05 10° NNW 01:54:48 56° NW 01:54:48 56° NW
Mayak 0.2 01:52:59 10° N 01:56:22 31° WNW 01:56:22 31° WNW
Cosmos 1437 Rocket 4.2 02:02:09 34° ENE 02:02:09 34° ENE 02:05:18 10° NNE
Cosmos 1461 3.8 01:57:20 10° NW 02:00:25 45° NW 02:00:25 45° NW
SL-16 R/B 2.4 02:02:31 53° ESE 02:02:47 54° ESE 02:08:18 10° NNE
NOSS 3-1 (C) 3.4 02:04:10 61° WSW 02:05:15 79° NW 02:11:51 10° NE
Cosmos 405 4.5 02:09:47 36° N 02:09:47 36° N 02:11:59 10° N
Nadezhda 1 Rocket 3.8 02:03:14 10° NNW 02:09:20 73° W 02:10:11 64° SW
Cosmos 2322 Rocket 2.3 02:09:17 60° SE 02:09:41 62° ESE 02:15:20 10° NNE
Meteor 1-21 4.4 02:06:06 10° N 02:11:40 62° ENE 02:12:46 51° SE
Cosmos 1975 3.8 02:14:35 41° NW 02:14:35 41° NW 02:17:44 10° N
Cosmos 1626 Rocket 3.8 02:09:51 10° N 02:13:54 64° NE 02:13:54 64° NE
Cosmos 1709 Rocket 4.1 02:14:03 52° SE 02:15:17 64° E 02:21:20 10° NNE
Cosmos 44 4.1 02:14:10 10° NNW 02:18:20 42° NE 02:19:43 32° E
Cosmos 1666 3.5 02:20:25 51° NNE 02:20:25 51° NNE 02:23:25 10° NNE
Cosmos 1544 Rocket 4.4 02:26:58 41° WNW 02:26:58 41° WNW 02:30:51 10° N
Cosmos 1386 Rocket 4.4 02:26:00 56° SW 02:27:00 65° W 02:33:03 10° N
Cosmos 1850 Rocket 4.4 02:27:31 10° NNW 02:32:21 47° W 02:32:21 47° W
CZ-2D R/B 4.0 02:29:57 10° NE 02:34:01 21° E 02:36:24 16° SE
Cosmos 220 Rocket 4.1 02:30:21 10° NNW 02:34:22 71° NE 02:34:22 71° NE
PSLV R/B 4.3 02:34:44 59° E 02:34:55 60° ENE 02:39:06 10° N
SL-08 R/B 4.3 02:34:05 32° ESE 02:35:33 41° ENE 02:39:53 10° N
NPP 4.4 02:32:39 10° NNE 02:37:47 44° E 02:39:04 37° SE
USA 81 4.1 02:34:32 10° NNW 02:39:43 57° W 02:40:02 56° WSW
USA 234 3.5 02:33:40 10° ENE 02:40:04 53° SE 02:41:31 45° S
Cosmos 1455 Rocket 4.2 02:43:04 32° WNW 02:43:04 32° WNW 02:46:47 10° N
Cosmos 1110 Rocket 3.8 02:45:40 68° S 02:46:20 83° ESE 02:51:32 10° NNE
ADEOS Rocket 3.4 02:41:26 10° NNE 02:47:27 53° E 02:49:19 38° SSE
BREEZE M DEB (TANK) 3.2 02:47:38 42° WSW 02:49:20 76° NNW 02:52:12 10° ENE
Cosmos 2263 Rocket 2.1 02:43:41 10° NNW 02:49:24 74° WSW 02:50:30 57° S
SL-16 R/B 3.5 02:44:28 14° SE 02:49:30 45° ENE 02:55:25 10° N
Cosmos 2184 Rocket 4.5 02:51:45 33° SSE 02:54:17 53° E 03:00:16 10° NNE
H-2A R/B 3.5 02:52:32 10° N 02:55:55 32° WNW 02:55:55 32° WNW
Cosmos 2181 Rocket 4.0 02:50:44 10° NNW 02:57:08 73° W 02:59:07 46° SSW
COBE Rocket 4.2 02:52:09 10° NNE 02:57:20 65° E 02:58:36 48° SSE
Cosmos 2360 Rocket 2.4 02:58:38 47° SSE 03:00:03 63° ESE 03:05:38 10° NNE
Helios 1A Rocket 2.8 02:56:12 10° NNE 03:00:14 83° WNW 03:00:14 83° WNW
Cosmos 1980 Rocket 4.0 02:59:06 16° W 03:01:45 22° NW 03:06:06 10° N
Cosmos 2219 Rocket 4.3 02:59:54 12° SE 03:02:55 18° E 03:06:38 10° ENE
Cosmos 1743 4.4 03:04:06 23° WNW 03:04:06 23° WNW 03:06:47 10° NNW
Cosmos 1842 4.0 03:02:06 10° NNW 03:05:06 41° WNW 03:05:06 41° WNW
ATLAS 2AS CENTAUR R/B 3.4 03:04:32 33° S 03:07:53 53° ESE 03:15:44 10° NE
Cosmos 1844 Rocket 4.0 03:03:13 10° NNW 03:08:31 39° ENE 03:13:47 10° SE
Cosmos 44 Rocket 3.2 03:08:13 10° NW 03:12:50 57° WSW 03:12:50 57° WSW
COSMOS 2428 3.8 03:10:57 26° SSE 03:13:19 37° ESE 03:18:32 10° NE
NOSS 3-1 (A) 4.3 03:10:23 25° W 03:13:26 42° NW 03:19:46 10° NNE
Meteor 1-4 Rocket 2.6 03:14:06 73° ENE 03:14:06 73° ENE 03:17:32 10° NNE
Cosmos 1953 Rocket 3.8 03:09:47 10° N 03:14:16 69° E 03:15:37 43° SSE
ARIANE 5 R/B 3.4 03:13:46 10° NNE 03:18:39 42° E 03:21:08 25° SSE
Cosmos 2058 Rocket 3.8 03:17:13 34° SE 03:18:43 48° E 03:23:05 10° NNE
NOSS 2-3 (E) 3.9 03:18:51 52° SSW 03:19:59 75° SE 03:25:31 10° NE
Lacrosse 5 rocket 3.3 03:17:58 10° NNW 03:21:25 29° NNE 03:25:03 10° E
Cosmos 1331 Rocket 4.3 03:23:52 40° WSW 03:25:14 52° WNW 03:30:19 10° NNE
Cosmos 2074 Rocket 3.9 03:22:36 37° S 03:25:20 86° W 03:31:41 10° N
Cosmos 2322 3.6 03:28:39 41° SSW 03:30:44 90° WNW 03:36:26 10° NNE
Cosmos 2333 Rocket 3.9 03:28:11 13° SSE 03:31:54 25° ESE 03:36:28 10° NE
ATLAS 3B R/B 3.1 03:25:54 10° NNW 03:32:38 61° NE 03:39:03 10° SE
Cosmos 1378 3.6 03:31:07 10° N 03:34:48 58° E 03:36:11 34° SE
Cosmos 1726 Rocket 3.5 03:34:11 50° SSW 03:35:17 81° W 03:39:44 10° N
OAO 3 Rocket 4.3 03:38:41 26° SSE 03:38:41 26° SSE 03:41:50 10° ESE
Cosmos 1607 3.9 03:31:46 10° NW 03:38:14 85° SW 03:44:42 10° SSE
Cosmos 2278 Rocket 4.2 03:35:25 10° N 03:40:21 29° NE 03:45:15 10° ESE
CBERS-1 4.3 03:38:45 10° N 03:43:45 53° WNW 03:45:38 35° SW
Resurs 1-4 Rocket 2.1 03:38:46 10° NNE 03:44:04 83° ESE 03:46:40 31° S
Cosmos 1707 2.6 03:43:20 10° NNW 03:47:12 77° W 03:48:14 46° S
SL-16 R/B 3.6 03:44:23 18° W 03:47:13 26° NW 03:51:58 10° N
Aureole 2 Rocket 4.0 03:45:34 23° SSE 03:47:28 36° ESE 03:51:09 10° NE
Meteor 1-24 Rocket 4.3 03:42:32 10° N 03:47:52 55° ENE 03:53:20 10° SSE
Cosmos 2154 Rocket 4.1 03:44:48 23° S 03:48:56 77° E 03:55:12 10° N
Cosmos 1486 Rocket 4.3 03:44:52 10° NNW 03:49:57 47° WSW 03:51:51 33° SSW
Cosmos 1610 Rocket 4.4 03:46:40 28° SSW 03:50:04 82° W 03:56:14 10° N
GENESIS II 4.2 03:46:27 10° NNW 03:50:25 79° NE 03:54:18 10° SE
Cosmos 1606 Rocket 4.0 03:49:37 37° WSW 03:50:44 46° WNW 03:55:03 10° N
Meteor 2-5 Rocket 3.7 03:45:53 10° N 03:51:35 86° W 03:56:01 18° S
Meteor 2-8 Rocket 4.4 03:45:49 10° N 03:51:57 86° W 03:56:46 17° S
IRS-1C 4.3 03:47:39 10° N 03:52:54 59° WNW 03:55:18 31° SW
NOSS 2-3 (C) 4.2 03:51:09 33° WSW 03:53:18 63° NW 03:58:55 10° NNE
Iridium 4 Rocket 3.7 03:50:27 29° SSW 03:53:32 72° W 03:59:03 10° N
Cosmos 2322 Rocket 3.8 03:51:05 16° W 03:54:12 24° NW 03:58:46 10° N
Cosmos 389 Rocket 3.5 03:52:31 24° SSE 03:54:13 41° E 03:57:38 10° NNE
BREEZE-M DEB (TANK) 4.0 03:54:02 10° WNW 03:57:34 58° NNE 04:09:18 10° E
CBERS 1 LM4 rocket 4.3 03:53:14 10° NNE 03:58:02 81° WNW 04:00:30 30° SSW
Cosmos 2333 4.2 03:56:49 27° SSW 04:00:02 79° ESE 04:05:44 10° NNE
Cosmos 1766 4.0 03:57:44 21° SSE 04:00:05 49° E 04:03:55 10° NNE
USA 238 DEB 4.0 03:54:28 10° NW 04:01:36 77° NE 04:08:46 10° SE
USA 238 4.0 03:54:35 10° NW 04:01:42 76° NE 04:08:51 10° SE
Meteor 2-19 Rocket 4.4 03:58:19 21° S 04:02:34 88° E 04:08:46 10° N
DELTA 2 R/B (1) 3.7 04:01:43 27° WSW 04:04:32 54° S 04:09:58 10° E
Cosmos 1354 Rocket 4.0 03:59:47 10° NNW 04:05:04 68° WSW 04:09:54 12° S
Intercosmos 24 4.5 04:03:27 21° S 04:06:04 67° E 04:11:32 10° NNE
Cosmos 1844 3.8 04:00:32 10° NNW 04:06:11 81° ENE 04:11:50 10° SSE
SL-8 R/B 3.9 04:04:42 22° W 04:07:46 70° NNW 04:12:36 10° ENE
Cosmos 2341 Rocket 4.1 04:07:32 16° S 04:12:47 84° E 04:19:11 10° N
CZ-2D R/B 2.4 04:09:04 10° N 04:14:26 57° WNW 04:17:43 23° SW
Cosmos 968 Rocket 4.2 04:10:48 10° NNW 04:15:54 55° ENE 04:20:55 10° SE
Cosmos 2228 3.5 04:16:29 27° SW 04:18:15 42° WNW 04:22:22 10° N
BREEZE M DEB (TANK) 3.0 04:22:02 31° SW 04:22:16 31° SSW 04:26:22 10° SE
USA 234 3.8 04:16:44 10° NE 04:23:05 55° NNW 04:28:51 13° WSW
Abrixas rocket 3.7 04:25:43 20° S 04:26:59 26° SE 04:29:50 10° E
MOZ.5/SAFIR/RUBIN 5/SL-8 3.8 04:23:13 13° S 04:27:13 60° W 04:31:48 10° NNW
Cosmos 1805 3.6 04:27:33 12° S 04:31:03 64° E 04:34:57 10° NNE
ERBS 3.4 04:29:33 19° S 04:31:28 36° SE 04:34:40 10° ENE
ADEOS Rocket 4.3 04:27:35 10° N 04:32:34 26° WNW 04:36:16 14° WSW
SL-16 R/B 3.3 04:29:34 18° SW 04:33:14 32° W 04:38:46 10° NNW
Lacrosse 5 3.6 04:30:42 10° S 04:34:48 25° ESE 04:38:55 10° ENE
IRS-1D 4.3 04:31:06 10° N 04:35:35 35° WNW 04:38:43 18° WSW
In-Cosmos 22 4.0 04:30:29 10° NNW 04:35:50 77° W 04:41:06 10° S
Cosmos 972 4.3 04:32:06 16° SSW 04:35:59 86° WNW 04:40:56 10° NNE
Cosmos 972 Rocket 4.4 04:33:20 20° SW 04:36:25 44° WNW 04:41:17 10° N
Cosmos 1271 Rocket 3.7 04:35:41 21° SW 04:37:43 34° WNW 04:41:23 10° N
Cosmos 1340 Rocket 3.4 04:35:13 10° NNW 04:38:54 36° W 04:41:23 17° SSW
Meteor 1-22 Rocket 4.4 04:34:57 15° SSW 04:39:46 66° WNW 04:45:44 10° N
ADEOS 4.2 04:35:53 10° N 04:40:46 41° WNW 04:44:32 16° SW
Cosmos 1544 3.1 04:38:15 17° SSW 04:41:02 71° W 04:44:46 10° N
Cosmos 2360 Rocket 3.7 04:40:24 11° W 04:44:31 23° NW 04:48:58 10° N
Cosmos 2219 Rocket 2.3 04:41:38 16° SW 04:46:15 69° WNW 04:51:56 10° NNE
BREEZE-M DEB (TANK) 3.6 04:33:47 10° WSW 04:46:19 90° S 04:49:12 10° ENE
UNKNOWN OBJECT B 3.5 04:47:07 10° N 04:50:42 38° WNW 04:53:32 15° SW
ATLAS CENTAUR R/B 2.6 04:45:00 10° NW 04:51:15 57° NNE 04:53:54 10° ESE
Cosmos 1844 Rocket 3.3 04:47:16 10° NW 04:52:19 34° WSW 04:57:21 10° SSW
Cosmos 1980 3.8 04:47:11 11° SSW 04:52:41 83° ESE 04:58:24 10° NNE
Cosmos 2237 Rocket 2.3 04:48:06 10° SSW 04:53:42 79° ESE 04:59:21 10° NNE
MOS 1 Rocket 4.2 04:50:33 10° N 04:54:27 29° WNW 04:57:34 13° WSW
Meteor 2-15 4.4 04:50:45 10° N 04:56:56 82° W 05:03:04 10° S
COSMOS 2428 3.6 04:52:58 13° WSW 04:57:34 37° NW 05:02:53 10° NNE
ARIANE 5 R/B 3.8 04:53:20 10° N 04:57:34 27° WNW 05:01:29 12° WSW
ATLAS 2AS CENTAUR R/B 3.7 04:51:58 11° WSW 04:59:08 46° NW 05:06:58 10° NNE
USA 161 1.6 04:56:28 10° S 04:59:23 51° W 05:02:12 10° NNW
Lacrosse 5 rocket 1.5 04:56:54 10° WNW 05:00:47 49° SW 05:04:53 10° SSE
CZ-4B R/B 4.3 04:56:33 10° NNE 05:02:00 46° E 05:07:20 10° S
Cosmos 1812 Rocket 4.1 04:59:44 12° SSW 05:03:33 41° WNW 05:07:41 10° N
Cosmos 1356 Rocket 3.6 05:01:32 10° NNW 05:05:23 45° W 05:09:12 10° SSW
NOSS 3-4 (A) 3.9 05:00:26 10° SSW 05:06:38 63° ESE 05:13:02 10° NE
NOSS 3-4 (C) 3.9 05:00:31 10° SSW 05:06:43 62° ESE 05:13:07 10° NE
SL-8 Rocket 4.2 05:04:54 10° SSW 05:11:06 57° WNW 05:17:20 10° N
Cosmos 1758 3.5 05:07:13 10° SSW 05:11:11 58° W 05:15:12 10° N
Cosmos 1076 Rocket 3.5 05:07:47 10° N 05:12:04 89° W 05:16:19 10° S
NOSS 0 Rocket 4.1 05:06:50 10° SW 05:12:59 68° WNW 05:19:13 10° NNE
Meteor 2-21 Rocket 4.5 05:07:03 10° SSW 05:13:06 75° W 05:19:17 10° N
Cosmos 2333 Rocket 2.6 05:10:17 10° SW 05:15:49 51° WNW 05:21:22 10° NNE
Cosmos 1953 2.4 05:12:22 10° SSW 05:16:20 59° W 05:20:19 10° N
ADEOS II 2.1 05:12:35 10° NNE 05:17:52 81° WNW 05:23:07 10° SSW
Okean O Rocket 1.8 05:14:04 10° NNE 05:18:34 76° ESE 05:23:00 10° S
Okean 3 Rocket 3.7 05:14:34 10° NNW 05:18:56 57° W 05:23:18 10° S
Cosmos 1470 2.8 05:17:06 10° S 05:21:01 89° ESE 05:24:57 10° N
Aureole 2 Rocket 4.4 05:19:36 10° WSW 05:22:46 21° WNW 05:25:51 10° N
ATLAS 3B R/B 3.4 05:17:19 10° NW 05:22:50 28° WSW 05:28:11 10° SSW
Resurs 1-4 Rocket 4.0 05:20:18 10° NNW 05:23:12 15° WNW 05:26:06 10° W
PSLV R/B 3.9 05:19:37 10° N 05:23:32 67° WNW 05:27:31 10° SSW
SeaSat 1 2.4 05:19:07 10° SSE 05:24:02 77° WSW 05:29:00 10° NNW
Cosmos 2278 Rocket 2.5 05:19:14 10° NW 05:24:38 47° WSW 05:30:01 10° S
Cosmos 1766 Rocket 3.7 05:22:17 10° N 05:26:48 85° E 05:31:14 10° S
BREEZE-M DEB (TANK) 2.6 05:24:45 10° WNW 05:27:18 41° NNE 05:29:36 10° E
H-2A R/B 4.2 05:21:28 10° W 05:30:01 17° WSW 05:33:57 10° SSW
CZ-4B DEB 4.4 05:25:36 10° NNE 05:31:12 84° ESE 05:36:46 10° SSW
